Regional Weather Roundup
Issued by NWS

Home | Current Version | Previous Version | Graphics & Text | Print | Product List | Glossary On
Versions: 1 2 3 4 5 6 7 8 9 10 11 12 13 14 15 16 17 18 19 20 21 22 23 24 25 26 27 28 29 30 31 32 33 34 35 36 37 38 39 40 41 42 43 44 45 46 47 48 49 50
000
ASUS43 KIND 030859
RWRIN

WEATHER ROUNDUP FOR INDIANA
NATIONAL WEATHER SERVICE INDIANAPOLIS IN
400 AM EST TUE MAR 03 2015

NOTE: "FAIR" INDICATES FEW OR NO CLOUDS BELOW 12,000 FEET WITH NO
SIGNIFICANT WEATHER AND/OR OBSTRUCTIONS TO VISIBILITY.

* - STATION DOES NOT REPORT WEATHER SUCH AS PRECIPITATION OR FOG.

+ - STATION NOT QUALITY CONTROLLED BY THE NATIONAL WEATHER SERVICE.
    USE DATA WITH CAUTION...ESPECIALLY DEWPOINT AND RELATIVE
    HUMIDITY OBSERVATIONS.

INZ001>003-010>013-019-020-031000-
NORTHWEST INDIANA

CITY           SKY/WX    TMP DP  RH WIND       PRES   REMARKS
MONTICELLO +   MIX PCPN  25  17  71 SE5       30.14F WCI  20
VALPARAISO     NOT AVBL

$$

LMZ046-743>745-031000-
SOUTHERN LAKE MICHIGAN

STATION/POSITION TIME  TEMP WIND        PRES
                       AIR  DIR/SP/G
                 (UTC) (F)  (DEG/KT/KT) (MB)
MICHIGAN CITY    0800   26  110/  9/ 12   N/A

$$

INZ004-005-014>016-021>024-031000-
NORTH CENTRAL INDIANA

CITY           SKY/WX    TMP DP  RH WIND       PRES   REMARKS
GOSHEN         CLOUDY    24  15  68 SE10      30.16F WCI  14
SOUTH BEND     CLOUDY    26  15  63 SE9       30.17F WCI  17

$$

INZ006>009-017-018-025>027-031000-
NORTHEAST INDIANA

CITY           SKY/WX    TMP DP  RH WIND       PRES   REMARKS
ANGOLA *+      MOCLDY    21  16  79 SE6       30.18F WCI  14
FORT WAYNE     CLOUDY    23  15  71 E8        30.21F WCI  14

$$

INZ028-029-035-036-043>045-051>053-031000-
WEST CENTRAL INDIANA

CITY           SKY/WX    TMP DP  RH WIND       PRES   REMARKS
CRAWFORDSVL +  CLOUDY    25  15  65 SE14      30.08F WCI  14
GREENCASTLE +  CLOUDY    27  18  69 SE12      30.11F WCI  16
LAFAYETTE      MIX PCPN  26  18  71 SE6       30.14F WCI  19
TERRE HAUTE    CLOUDY    29  18  63 SE8       30.11F WCI  21

$$

INZ030>032-037>040-046>048-054>057-064-065-031000-
CENTRAL INDIANA

CITY           SKY/WX    TMP DP  RH WIND       PRES   REMARKS
GREENWOOD *+   CLOUDY    27  16  63 E7        30.17F WCI  19
INDIANAPOLIS   FRZ RAIN  27  17  66 E12       30.14F WCI  17
-EAGLE CREEK   MIX PCPN  26  17  68 SE10      30.15F WCI  16
KOKOMO *+      CLOUDY    25  16  68 SE10      30.16F WCI  15
MT COMFORT *+  MOCLDY    25  10  54 SE5       30.19  WCI  19
SHELBYVILLE    MOCLDY    29  18  63 CALM      30.19F

$$

INZ033-034-041-042-049-050-058-059-031000-
EAST CENTRAL INDIANA

CITY           SKY/WX    TMP DP  RH WIND       PRES   REMARKS
MUNCIE         CLOUDY    25  15  66 SE9       30.18F WCI  15

$$

INZ060-061-067>069-081>083-085>088-031000-
SOUTHWEST INDIANA

CITY           SKY/WX    TMP DP  RH WIND       PRES   REMARKS
EVANSVILLE     CLOUDY    35  23  61 E7        30.13F WCI  29
HUNTINGBURG *+ CLOUDY    34  21  60 SE9       30.14F WCI  26

$$

INZ062-063-066-070>080-084-089>092-031000-
SOUTH CENTRAL AND SOUTHEAST INDIANA

CITY           SKY/WX    TMP DP  RH WIND       PRES   REMARKS
BLOOMINGTON    CLOUDY    29  18  63 SE10      30.12F WCI  20
SEYMOUR +      CLOUDY    30  18  59 SE3       30.19F

$$




USA.gov is the U.S. government's official web portal to all federal, state and local government web resources and services.